This is the latest recevied weather packets stored in our database for station/object KB4MOX. If no packets are shown the sender has not sent any weather packets the latest 10 day(s).
| Time | Temp. | Humidity | Pressure | Rain* | Wind** | Luminosity | Snow |
|---|---|---|---|---|---|---|---|
| 1787703172 | 30° C | 57% | 1016.2 hPa | 0 mm | - | 0 W/m² | - |
| 1787702868 | 30° C | 55% | 1016 hPa | 0 mm | - | 1 W/m² | - |
| 1787702563 | 30° C | 55% | 1015.9 hPa | 0 mm | - | 3 W/m² | - |
| 1787702258 | 30.56° C | 53% | 1015.7 hPa | 0 mm | - | 6 W/m² | - |
| 1787701958 | 31.11° C | 52% | 1015.7 hPa | 0 mm | - | 9 W/m² | - |
| 1787701655 | 31.11° C | 51% | 1015.7 hPa | 0 mm | - | 13 W/m² | - |
| 1787701350 | 31.67° C | 49% | 1015.7 hPa | 0 mm | - | 17 W/m² | - |
| 1787701045 | 32.22° C | 48% | 1015.5 hPa | 0 mm | - | 23 W/m² | - |
| 1787700740 | 32.22° C | 47% | 1015.6 hPa | 0 mm | - | 32 W/m² | - |
| 1787700437 | 32.78° C | 46% | 1015.6 hPa | 0 mm | - | 40 W/m² | - |
| 1787700132 | 32.78° C | 45% | 1015.4 hPa | 0 mm | - | 48 W/m² | - |
| 1787699829 | 32.78° C | 45% | 1015.5 hPa | 0 mm | - | 62 W/m² | - |
| 1787699528 | 33.33° C | 44% | 1015.5 hPa | 0 mm | - | 70 W/m² | - |
| 1787699224 | 33.33° C | 43% | 1015.3 hPa | 0 mm | - | 68 W/m² | - |
| 1787698921 | 33.89° C | 42% | 1015.3 hPa | 0 mm | - | 76 W/m² | - |
| 1787698615 | 33.89° C | 42% | 1015.2 hPa | 0 mm | - | 87 W/m² | - |
| 1787698312 | 33.89° C | 42% | 1015.3 hPa | 0 mm | - | 99 W/m² | - |
| 1787698007 | 34.44° C | 41% | 1015 hPa | 0 mm | - | 111 W/m² | - |
| 1787697706 | 33.89° C | 41% | 1015.1 hPa | 0 mm | - | 123 W/m² | - |
| 1787697402 | 33.89° C | 41% | 1015.1 hPa | 0 mm | - | 138 W/m² | - |
| 1787697097 | 33.89° C | 41% | 1015 hPa | 0 mm | - | 152 W/m² | - |
| 1787696792 | 34.44° C | 41% | 1015.1 hPa | 0 mm | - | 167 W/m² | - |
| 1787696488 | 34.44° C | 40% | 1015.1 hPa | 0 mm | - | 183 W/m² | - |
| 1787696189 | 34.44° C | 41% | 1015.2 hPa | 0 mm | - | 203 W/m² | - |
| 1787695887 | 34.44° C | 41% | 1015.1 hPa | 0 mm | - | 237 W/m² | - |
* Rain latest hour (hover to see other rain measurements)
** Current wind speed in m/s (hover to see current wind gust speed)